Showing default

RANGE A, 43773

Orbit data source: Space-Track

RANGE A, 43773 is a payload satellite owned by GaTech (US) in SSO that was launched on Mon, 03 Dec 2018 UTC via an FALCON 9 launch vehicle from the Air Force Western Test Range (AFWTR). Payload-class satellites include a variety of spacecraft equipped with specific instruments for various scientific and technological missions. These include communications satellites like Starlink; space stations such as the ISS; scientific satellites like the Hubble; Earth observation satellites from companies like Planet Labs, Umbra, and HawkEye 360; GPS; miniature CubeSats for education and research; and military/defense satellites.

Loading next visibility...
Identifier
43773, 2018-099R
Orbit
SSO
Country
Flag of USUS
Related business
Manufacturer
GaTech
Mission
Operational Amateur Technology
Bus & Motor
CUBESAT 1.5U, Unknown motor
Mass
2 kg wet, 2 kg dry
Launch date (UTC)
2018-12-03 (7 years ago)
Launch vehicle
FALCON 9
Launch site
Air Force Western Test Range (AFWTR)
Object type
Payload
Rocket body
Debris
Shape & HBR
Box + 2 Pan, 0.1 m
Radar Cross Section
0.025 m², Small (<0.1 m²)

Expand to show TLE details & history
Last TLE update: 13 hours ago

TLE from 13 hours ago
0 RANGE A
1 43773U 18099R   26036.81295720  .00008550  00000-0  49945-3 0  9994
2 43773  97.4159  83.2199 0012062  83.3166 276.9437 15.12083699392636
Epoch: 2026-02-05T19:30Z
TLE epoch observation values (Epoch: 2026-02-05T19:30:39.502Z)
Latitude
-0.00002°
Longitude
14.59551°
Altitude
531.928 km
Speed
7.597 km/s
True Right ascension
05h 32m 52s
True Declination
0° 00' 00"
Sunlit
Object was in full shadow at epoch
Visualization orbit readout
Latitude
Unknown
Longitude
Unknown
Altitude
Unknown
Speed
Unknown
Apparent Right ascension
Unknown
Apparent Declination
Unknown
Sunlit
N/A
Visualization observer readout
Local Sidereal Time
10:34:39
Azimuth
Unknown
Elevation
Unknown
Doppler factor
Unknown
Orbital elements
Apogee altitude
535.152 km
Perigee altitude
518.494 km
Semi-major axis
6,904.96 km
Eccentricity
0.00121
Inclination
97.4159°
RAAN
83.2199°
Arg. of periapsis
83.3166°
True anomaly
276.80647°
Mean anomaly
276.9437°
Eccentric anomaly
276.87509°
Mean motion
3.7827 °/min
Orbital period
95.17 mins
BSTAR
0.00049945
Loading maneuver chart data...
Computing Atmospheric mass density...
Loading historical data...
Loading historical data...
Loading historical data...
Loading historical data...
Loading historical data...
Loading historical data...
Loading historical data...

Documentation

Showing up to 5 results
|